| time (UTC) | temp F | wind direction | speed MPH | gust MPH | rain 1hr in | rain 24hr in | rain mn in | humidity % | barometer mb |
| 20260507072844 | 73 | 0.0 | 0.0 | 0.00 | 0.00 | 0.00 | 69 | 1014.2 | |
| 20260507071845 | 72 | 0.0 | 0.0 | 0.00 | 0.00 | 0.00 | 68 | 1014.4 | |
| 20260507070844 | 72 | 0.0 | 0.0 | 0.00 | 0.00 | 0.00 | 68 | 1014.3 | |
| 20260507065844 | 71 | 0.0 | 0.0 | 0.00 | 0.00 | 0.00 | 70 | 1014.1 | |
| 20260507064845 | 70 | 0.0 | 0.0 | 0.00 | 0.00 | 0.00 | 69 | 1013.9 | |
| 20260507063844 | 70 | 0.0 | 0.0 | 0.00 | 0.00 | 0.00 | 71 | 1013.9 | |
| 20260507062845 | 69 | 0.0 | 0.0 | 0.00 | 0.00 | 0.00 | 71 | 1014.3 | |
| 20260507061845 | 68 | 0.0 | 0.0 | 0.00 | 0.00 | 0.00 | 72 | 1014.4 | |
| 20260507060845 | 65 | 0.0 | 0.0 | 0.00 | 0.00 | 0.00 | 72 | 1014.5 | |
| 20260507055844 | 63 | 0.0 | 0.0 | 0.00 | 0.00 | 0.00 | 73 | 1014.6 | |
| 20260507054846 | 71 | 0.0 | 0.0 | 0.00 | 0.00 | 0.00 | 76 | 1014.3 | |
| 20260507053844 | 58 | 0.0 | 0.0 | 0.00 | 0.00 | 0.00 | 80 | 1014.0 | |
| 20260507052844 | 58 | 0.0 | 0.0 | 0.00 | 0.00 | 0.00 | 80 | 1014.1 | |
| 20260507051845 | 58 | 0.0 | 0.0 | 0.00 | 0.00 | 0.00 | 80 | 1013.8 | |
| 20260507050845 | 58 | 0.0 | 0.0 | 0.00 | 0.00 | 0.00 | 78 | 1014.1 | |
| 20260507045845 | 59 | 0.0 | 0.0 | 0.00 | 0.00 | 0.00 | 76 | 1014.1 | |
| 20260507044845 | 60 | 0.0 | 0.0 | 0.00 | 0.00 | 0.00 | 79 | 1013.9 | |
| 20260507043845 | 57 | 0.0 | 0.0 | 0.00 | 0.00 | 0.00 | 81 | 1013.8 | |
| 20260507042845 | 55 | 0.0 | 0.0 | 0.00 | 0.00 | 0.00 | 83 | 1013.8 | |
| 20260507041844 | 54 | 0.0 | 0.0 | 0.00 | 0.00 | 0.00 | 83 | 1013.5 | |
| 20260507040844 | 54 | 0.0 | 0.0 | 0.00 | 0.00 | 0.00 | 82 | 1013.5 | |
| 20260507035844 | 55 | 0.0 | 0.0 | 0.00 | 0.00 | 0.00 | 83 | 1013.5 | |
| 20260507034843 | 55 | 0.0 | 0.0 | 0.00 | 0.00 | 0.00 | 83 | 1013.0 | |
| 20260507033844 | 55 | 0.0 | 0.0 | 0.00 | 0.00 | 0.00 | 83 | 1013.3 | |
| 20260507032844 | 55 | 0.0 | 0.0 | 0.00 | 0.00 | 0.00 | 83 | 1013.2 | |
| 20260507031845 | 54 | 0.0 | 0.0 | 0.00 | 0.00 | 0.00 | 83 | 1012.9 | |
| 20260507030844 | 54 | 0.0 | 0.0 | 0.00 | 0.00 | 0.00 | 83 | 1013.1 | |
| 20260507025845 | 55 | 0.0 | 0.0 | 0.00 | 0.00 | 0.00 | 83 | 1012.7 | |
| 20260507024844 | 55 | 0.0 | 0.0 | 0.00 | 0.00 | 0.00 | 83 | 1012.8 | |
| 20260507023845 | 55 | 0.0 | 0.0 | 0.00 | 0.00 | 0.00 | 83 | 1013.0 | |
| 20260507022844 | 55 | 0.0 | 0.0 | 0.00 | 0.00 | 0.00 | 83 | 1013.3 | |
| 20260507021844 | 55 | 0.0 | 0.0 | 0.00 | 0.00 | 0.00 | 83 | 1013.2 | |
| 20260507020844 | 56 | 0.0 | 0.0 | 0.00 | 0.00 | 0.00 | 84 | 1013.0 | |
| 20260507015844 | 55 | 0.0 | 0.0 | 0.00 | 0.00 | 0.00 | 83 | 1012.8 | |
| 20260507014845 | 55 | 0.0 | 0.0 | 0.00 | 0.00 | 0.00 | 84 | 1012.7 | |
| 20260507013845 | 56 | 0.0 | 0.0 | 0.00 | 0.00 | 0.00 | 84 | 1013.0 | |
| 20260507012846 | 55 | 0.0 | 0.0 | 0.00 | 0.00 | 0.00 | 84 | 1012.7 | |
| 20260507011844 | 56 | 0.0 | 0.0 | 0.00 | 0.00 | 0.00 | 83 | 1012.7 | |
| 20260507010845 | 56 | 0.0 | 0.0 | 0.00 | 0.00 | 0.00 | 83 | 1012.9 | |
| 20260507005845 | 56 | 0.0 | 0.0 | 0.00 | 0.00 | 0.00 | 84 | 1013.0 | |
| 20260507004844 | 57 | 0.0 | 0.0 | 0.00 | 0.00 | 0.00 | 83 | 1012.9 | |
| 20260507003844 | 57 | 0.0 | 0.0 | 0.00 | 0.00 | 0.00 | 83 | 1013.1 | |
| 20260507002845 | 57 | 0.0 | 0.0 | 0.00 | 0.00 | 0.00 | 83 | 1013.0 | |
| 20260507001844 | 57 | 0.0 | 0.0 | 0.00 | 0.00 | 0.00 | 83 | 1012.8 | |
| 20260507000844 | 57 | 0.0 | 0.0 | 0.00 | 0.00 | 0.00 | 83 | 1012.9 | |
| 20260506235844 | 57 | 0.0 | 0.0 | 0.00 | 0.00 | 0.00 | 83 | 1012.8 | |
| 20260506234844 | 58 | 0.0 | 0.0 | 0.00 | 0.00 | 0.00 | 84 | 1012.8 | |
| 20260506233844 | 58 | 0.0 | 0.0 | 0.00 | 0.00 | 0.00 | 84 | 1012.9 | |
| 20260506232844 | 58 | 0.0 | 0.0 | 0.00 | 0.00 | 0.00 | 84 | 1013.0 | |
| 20260506231845 | 58 | 0.0 | 0.0 | 0.00 | 0.00 | 0.00 | 84 | 1012.7 | |
| 20260506230845 | 58 | 0.0 | 0.0 | 0.00 | 0.00 | 0.00 | 84 | 1012.8 | |
| 20260506225844 | 58 | 0.0 | 0.0 | 0.00 | 0.00 | 0.00 | 84 | 1012.9 | |
| 20260506224845 | 58 | 0.0 | 0.0 | 0.00 | 0.00 | 0.00 | 84 | 1012.9 | |
| 20260506223844 | 58 | 0.0 | 0.0 | 0.00 | 0.00 | 0.00 | 84 | 1013.0 | |
| 20260506222844 | 58 | 0.0 | 0.0 | 0.00 | 0.00 | 0.00 | 84 | 1012.9 | |
| 20260506221845 | 58 | 0.0 | 0.0 | 0.00 | 0.00 | 0.00 | 84 | 1012.9 | |
| 20260506220845 | 58 | 0.0 | 0.0 | 0.00 | 0.00 | 0.00 | 84 | 1012.8 | |
| 20260506215844 | 58 | 0.0 | 0.0 | 0.00 | 0.00 | 0.00 | 84 | 1012.7 | |
| 20260506214845 | 58 | 0.0 | 0.0 | 0.00 | 0.00 | 0.00 | 84 | 1012.4 | |
| 20260506213843 | 58 | 0.0 | 0.0 | 0.00 | 0.00 | 0.00 | 84 | 1012.5 | |
| 20260506212844 | 59 | 0.0 | 0.0 | 0.00 | 0.00 | 0.00 | 84 | 1012.6 | |
| 20260506211844 | 59 | 0.0 | 0.0 | 0.00 | 0.00 | 0.00 | 83 | 1012.6 | |
| 20260506210844 | 59 | 0.0 | 0.0 | 0.00 | 0.00 | 0.00 | 84 | 1012.5 | |
| 20260506205844 | 59 | 0.0 | 0.0 | 0.00 | 0.00 | 0.00 | 83 | 1012.6 | |
| 20260506204844 | 60 | 0.0 | 0.0 | 0.00 | 0.00 | 0.00 | 83 | 1012.6 | |
| 20260506203844 | 60 | 0.0 | 0.0 | 0.00 | 0.00 | 0.00 | 84 | 1012.5 | |
| 20260506202844 | 59 | 0.0 | 0.0 | 0.00 | 0.00 | 0.00 | 84 | 1012.6 | |
| 20260506201846 | 60 | 0.0 | 0.0 | 0.00 | 0.00 | 0.00 | 84 | 1012.2 | |
| 20260506200844 | 60 | 0.0 | 0.0 | 0.00 | 0.00 | 0.00 | 84 | 1012.2 | |
| 20260506195845 | 60 | 0.0 | 0.0 | 0.00 | 0.00 | 0.00 | 84 | 1012.2 | |
| 20260506194844 | 60 | 0.0 | 0.0 | 0.00 | 0.00 | 0.00 | 84 | 1012.2 | |
| 20260506193844 | 60 | 0.0 | 0.0 | 0.00 | 0.00 | 0.00 | 83 | 1011.9 | |
| 20260506192844 | 60 | 0.0 | 0.0 | 0.00 | 0.00 | 0.00 | 83 | 1011.7 | |
| 20260506191844 | 60 | 0.0 | 0.0 | 0.00 | 0.00 | 0.00 | 83 | 1011.8 | |
| 20260506190844 | 61 | 0.0 | 0.0 | 0.00 | 0.00 | 0.00 | 83 | 1011.8 | |
| 20260506185844 | 61 | 0.0 | 0.0 | 0.00 | 0.00 | 0.00 | 83 | 1011.5 | |
| 20260506184844 | 61 | 0.0 | 0.0 | 0.00 | 0.00 | 0.00 | 82 | 1011.5 | |
| 20260506183844 | 61 | 0.0 | 0.0 | 0.00 | 0.00 | 0.00 | 83 | 1011.5 | |
| 20260506182844 | 62 | 0.0 | 0.0 | 0.00 | 0.00 | 0.00 | 83 | 1011.4 | |
| 20260506181844 | 62 | 0.0 | 0.0 | 0.00 | 0.00 | 0.00 | 83 | 1011.4 | |
| 20260506180845 | 62 | 0.0 | 0.0 | 0.00 | 0.00 | 0.00 | 83 | 1011.4 | |
| 20260506175845 | 62 | 0.0 | 0.0 | 0.00 | 0.00 | 0.00 | 83 | 1011.3 | |
| 20260506174845 | 62 | 0.0 | 0.0 | 0.00 | 0.00 | 0.00 | 83 | 1011.2 | |
| 20260506173845 | 62 | 0.0 | 0.0 | 0.00 | 0.00 | 0.00 | 83 | 1011.4 | |
| 20260506172844 | 62 | 0.0 | 0.0 | 0.00 | 0.00 | 0.00 | 83 | 1011.2 | |
| 20260506171843 | 63 | 0.0 | 0.0 | 0.00 | 0.00 | 0.00 | 82 | 1011.2 | |
| 20260506170845 | 63 | 0.0 | 0.0 | 0.00 | 0.00 | 0.00 | 82 | 1011.2 | |
| 20260506165845 | 63 | 0.0 | 0.0 | 0.00 | 0.00 | 0.00 | 82 | 1011.0 | |
| 20260506164845 | 63 | 0.0 | 0.0 | 0.00 | 0.00 | 0.00 | 82 | 1011.4 | |
| 20260506163844 | 63 | 0.0 | 0.0 | 0.00 | 0.00 | 0.00 | 83 | 1011.3 | |
| 20260506162844 | 63 | 0.0 | 0.0 | 0.00 | 0.00 | 0.00 | 82 | 1011.0 | |
| 20260506161844 | 63 | 0.0 | 0.0 | 0.00 | 0.00 | 0.00 | 82 | 1011.3 | |
| 20260506160846 | 63 | 0.0 | 0.0 | 0.00 | 0.00 | 0.00 | 82 | 1011.1 | |
| 20260506155844 | 63 | 0.0 | 0.0 | 0.00 | 0.00 | 0.00 | 82 | 1011.1 | |
| 20260506154844 | 64 | 0.0 | 0.0 | 0.00 | 0.00 | 0.00 | 83 | 1011.1 | |
| 20260506153844 | 63 | 0.0 | 0.0 | 0.00 | 0.00 | 0.00 | 82 | 1011.2 | |
| 20260506152844 | 64 | 0.0 | 0.0 | 0.00 | 0.00 | 0.00 | 83 | 1011.1 | |
| 20260506151845 | 63 | 0.0 | 0.0 | 0.00 | 0.00 | 0.00 | 83 | 1011.3 | |
| 20260506150845 | 63 | 0.0 | 0.0 | 0.00 | 0.00 | 0.00 | 84 | 1011.6 | |
| 20260506145845 | 63 | 0.0 | 0.0 | 0.00 | 0.00 | 0.00 | 84 | 1011.5 | |
| 20260506144845 | 63 | 0.0 | 0.0 | 0.00 | 0.00 | 0.00 | 83 | 1011.5 | |
| 20260506143845 | 63 | 0.0 | 0.0 | 0.00 | 0.00 | 0.00 | 84 | 1011.7 | |
| 20260506142845 | 62 | 0.0 | 0.0 | 0.00 | 0.00 | 0.00 | 85 | 1011.7 | |
| 20260506141845 | 62 | 0.0 | 0.0 | 0.00 | 0.00 | 0.00 | 86 | 1011.8 | |
| 20260506140845 | 62 | 0.0 | 0.0 | 0.00 | 0.00 | 0.00 | 87 | 1011.6 | |
| 20260506135844 | 61 | 0.0 | 0.0 | 0.00 | 0.00 | 0.00 | 88 | 1011.7 | |
| 20260506134846 | 61 | 0.0 | 0.0 | 0.00 | 0.00 | 0.00 | 88 | 1011.7 | |
| 20260506133844 | 60 | 0.0 | 0.0 | 0.00 | 0.00 | 0.00 | 87 | 1011.5 | |
| 20260506132845 | 60 | 0.0 | 0.0 | 0.00 | 0.00 | 0.00 | 87 | 1012.0 | |
| 20260506131845 | 60 | 0.0 | 0.0 | 0.00 | 0.00 | 0.00 | 87 | 1012.2 | |
| 20260506130845 | 60 | 0.0 | 0.0 | 0.00 | 0.00 | 0.00 | 87 | 1012.3 | |
| 20260506125845 | 59 | 0.0 | 0.0 | 0.00 | 0.00 | 0.00 | 86 | 1012.4 | |
| 20260506124844 | 60 | 0.0 | 0.0 | 0.00 | 0.00 | 0.00 | 86 | 1012.7 | |
| 20260506123845 | 60 | 0.0 | 0.0 | 0.00 | 0.00 | 0.00 | 86 | 1012.4 | |
| 20260506122846 | 60 | 0.0 | 0.0 | 0.00 | 0.00 | 0.00 | 85 | 1012.7 | |
| 20260506121845 | 60 | 0.0 | 0.0 | 0.00 | 0.00 | 0.00 | 84 | 1012.8 | |
| 20260506120845 | 60 | 0.0 | 0.0 | 0.00 | 0.00 | 0.00 | 84 | 1012.6 | |
| 20260506115844 | 60 | 0.0 | 0.0 | 0.00 | 0.00 | 0.00 | 84 | 1012.7 | |
| 20260506114845 | 60 | 0.0 | 0.0 | 0.00 | 0.00 | 0.00 | 84 | 1012.6 | |
| 20260506113844 | 60 | 0.0 | 0.0 | 0.00 | 0.00 | 0.00 | 83 | 1012.6 | |
| 20260506112844 | 60 | 0.0 | 0.0 | 0.00 | 0.00 | 0.00 | 84 | 1012.8 | |
| 20260506111845 | 61 | 0.0 | 0.0 | 0.00 | 0.00 | 0.00 | 83 | 1012.7 | |
| 20260506110844 | 61 | 0.0 | 0.0 | 0.00 | 0.00 | 0.00 | 83 | 1013.1 | |
| 20260506105844 | 61 | 0.0 | 0.0 | 0.00 | 0.00 | 0.00 | 83 | 1013.0 | |
| 20260506104846 | 61 | 0.0 | 0.0 | 0.00 | 0.00 | 0.00 | 83 | 1013.0 | |
| 20260506103844 | 60 | 0.0 | 0.0 | 0.00 | 0.00 | 0.00 | 82 | 1013.2 | |
| 20260506102845 | 61 | 0.0 | 0.0 | 0.00 | 0.00 | 0.00 | 82 | 1013.0 | |
| 20260506101844 | 61 | 0.0 | 0.0 | 0.00 | 0.00 | 0.00 | 83 | 1013.4 | |
| 20260506100844 | 61 | 0.0 | 0.0 | 0.00 | 0.00 | 0.00 | 82 | 1013.3 | |
| 20260506095844 | 61 | 0.0 | 0.0 | 0.00 | 0.00 | 0.00 | 82 | 1013.2 | |
| 20260506094844 | 60 | 0.0 | 0.0 | 0.00 | 0.00 | 0.00 | 82 | 1013.5 | |
| 20260506093845 | 60 | 0.0 | 0.0 | 0.00 | 0.00 | 0.00 | 82 | 1013.3 | |
| 20260506092845 | 60 | 0.0 | 0.0 | 0.00 | 0.00 | 0.00 | 82 | 1013.3 | |
| 20260506091844 | 60 | 0.0 | 0.0 | 0.00 | 0.00 | 0.00 | 82 | 1013.4 | |
| 20260506090845 | 61 | 0.0 | 0.0 | 0.00 | 0.00 | 0.00 | 82 | 1013.3 | |
| 20260506085844 | 61 | 0.0 | 0.0 | 0.00 | 0.00 | 0.00 | 84 | 1013.2 | |
| 20260506084845 | 61 | 0.0 | 0.0 | 0.00 | 0.00 | 0.00 | 84 | 1013.1 | |
| 20260506083844 | 60 | 0.0 | 0.0 | 0.00 | 0.00 | 0.00 | 86 | 1013.0 | |
| 20260506082844 | 60 | 0.0 | 0.0 | 0.00 | 0.00 | 0.00 | 87 | 1012.9 | |
| 20260506081846 | 59 | 0.0 | 0.0 | 0.00 | 0.00 | 0.00 | 87 | 1012.7 | |
| 20260506080845 | 58 | 0.0 | 0.0 | 0.00 | 0.00 | 0.00 | 87 | 1012.8 |